Weather History for Aurora, IL

Change the Weather History Date:

Tuesday, September 30, 2014

  Actual Average Record
Temperature  
Mean Temperature 55 °F 57 °F  
Max Temperature 62 °F 69 °F 85 °F (2007)
Min Temperature 48 °F 44 °F 32 °F (2004)
Degree Days  
Heating Degree Days 10 9  
Month to date heating degree days 150 128  
Since 1 July heating degree days 171 153  
Cooling Degree Days 0 1  
Month to date cooling degree days 60 63  
Year to date cooling degree days 690 647  
Growing Degree Days 4 (Base 50)    
Moisture  
Dew Point 46 °F    
Average Humidity 72    
Maximum Humidity 83    
Minimum Humidity 60    
Precipitation  
Precipitation 0.00 in 0.15 in 0.18 in (2007)
Month to date precipitation 2.56 3.44  
Year to date precipitation 25.43 28.64  
Sea Level Pressure  
Sea Level Pressure 30.03 in    
Wind  
Wind Speed 9 mph (NE)    
Max Wind Speed 15 mph    
Max Gust Speed 19 mph    
Visibility 10 miles    
Events      
T = Trace of Precipitation, MM = Missing Value Source: NWS Daily Summary

Daily Weather History Graph

Daily Weather History Graph

Search for Another Location

Airport:

Trip Planner

Search our weather history database for the weather conditions in past years. The results will help you decide how hot, cold, wet, or windy it might be!

Date:

Astronomy

Sep. 30, 2014 Rise Set
Actual Time 6:49 AM CDT 6:37 PM CDT
Civil Twilight 6:22 AM CDT 7:04 PM CDT
Nautical Twilight 5:49 AM CDT 7:37 PM CDT
Astronomical Twilight 5:17 AM CDT 8:09 PM CDT
Moon 1:01 PM CDT (9/30) 11:03 PM CDT (9/30)
Length of Visible Light 12h 42m
Length of Day
11h 47m
Waxing Crescent, 38% of the Moon is Illuminated
Sep 30
Waxing Crescent
Oct 1
First Quarter
Oct 8
Full
Oct 15
Last Quarter
Oct 23
New

Hourly Weather History & Observations

Time (CDT) Temp. Dew Point Humidity Pressure Visibility Wind Dir Wind Speed Gust Speed Precip Events Conditions
12:47 AM 55.4 °F 50.0 °F 82% 30.01 in 10.0 mi NE 11.5 mph - N/A   Overcast
12:52 AM 55.0 °F 50.0 °F 83% 30.01 in 10.0 mi NNE 10.4 mph - N/A   Overcast
1:52 AM 54.0 °F 48.9 °F 83% 30.02 in 10.0 mi NNE 11.5 mph - N/A   Overcast
2:11 AM 54.0 °F 48.9 °F 83% 30.03 in 10.0 mi NNE 11.5 mph - N/A   Overcast
2:52 AM 53.1 °F 46.9 °F 80% 30.03 in 10.0 mi NNE 11.5 mph - N/A   Overcast
3:52 AM 53.1 °F 46.0 °F 77% 30.04 in 10.0 mi NNE 11.5 mph - N/A   Overcast
4:39 AM 51.1 °F 44.1 °F 77% 30.05 in 10.0 mi NNE 12.7 mph - N/A   Overcast
4:52 AM 51.1 °F 44.1 °F 77% 30.05 in 10.0 mi NE 10.4 mph - N/A   Overcast
5:52 AM 50.0 °F 43.0 °F 77% 30.04 in 10.0 mi NNE 12.7 mph - N/A   Overcast
6:20 AM 48.9 °F 43.0 °F 80% 30.06 in 10.0 mi NE 8.1 mph - N/A   Overcast
6:52 AM 48.0 °F 42.1 °F 80% 30.06 in 10.0 mi NNE 10.4 mph - N/A   Mostly Cloudy
7:31 AM 48.9 °F 42.1 °F 77% 30.07 in 10.0 mi NNE 8.1 mph - N/A   Overcast
7:52 AM 48.9 °F 43.0 °F 80% 30.06 in 10.0 mi NNE 10.4 mph - N/A   Overcast
8:52 AM 50.0 °F 43.0 °F 77% 30.07 in 10.0 mi NNE 12.7 mph - N/A   Overcast
9:52 AM 51.1 °F 44.1 °F 77% 30.07 in 10.0 mi NE 9.2 mph - N/A   Overcast
10:52 AM 53.1 °F 44.1 °F 71% 30.07 in 10.0 mi NE 8.1 mph - N/A   Overcast
11:52 AM 55.0 °F 45.0 °F 69% 30.07 in 9.0 mi ENE 9.2 mph - N/A   Overcast
12:52 PM 55.9 °F 45.0 °F 67% 30.05 in 10.0 mi ENE 10.4 mph - N/A   Overcast
1:52 PM 59.0 °F 46.0 °F 62% 30.03 in 10.0 mi NE 6.9 mph - N/A   Scattered Clouds
2:52 PM 60.1 °F 46.0 °F 60% 30.01 in 10.0 mi NE 15.0 mph - N/A   Partly Cloudy
3:52 PM 60.1 °F 46.0 °F 60% 30.01 in 10.0 mi NE 8.1 mph - N/A   Scattered Clouds
4:52 PM 57.0 °F 45.0 °F 64% 30.01 in 10.0 mi NE 9.2 mph - N/A   Partly Cloudy
5:52 PM 55.9 °F 45.0 °F 67% 30.02 in 10.0 mi ENE 6.9 mph - N/A   Mostly Cloudy
6:52 PM 55.0 °F 45.0 °F 69% 30.02 in 10.0 mi ENE 9.2 mph - N/A   Overcast
7:52 PM 55.0 °F 45.0 °F 69% 30.03 in 10.0 mi NE 10.4 mph - N/A   Overcast
8:52 PM 59.0 °F 54.0 °F 83% 29.98 in 8.0 mi NE 13.8 mph 20.7 mph N/A   Mostly Cloudy
9:25 PM 57.9 °F 52.0 °F 81% 30.00 in 7.0 mi NE 13.8 mph - N/A   Overcast
9:52 PM 54.0 °F 46.9 °F 77% 30.04 in 10.0 mi ENE 5.8 mph - N/A   Overcast
10:52 PM 54.0 °F 46.9 °F 77% 30.03 in 10.0 mi ENE 5.8 mph - N/A   Overcast
11:52 PM 55.9 °F 50.0 °F 80% 30.00 in 10.0 mi NNE 10.4 mph - N/A   Overcast